This is the latest recevied weather packets stored in our database for station/object AE0NK. If no packets are shown the sender has not sent any weather packets the latest 10 day(s).
| Time | Temp. | Humidity | Pressure | Rain* | Wind** | Luminosity | Snow |
|---|---|---|---|---|---|---|---|
| 1777857211 | 20.56° C | 29% | 1006.1 hPa | 0 mm | - | 0 W/m² | - |
| 1777856907 | 21.11° C | 29% | 1006.1 hPa | 0 mm | - | 0 W/m² | - |
| 1777856607 | 21.11° C | 29% | 1006.1 hPa | 0 mm | - | 5 W/m² | - |
| 1777856301 | 21.11° C | 28% | 1006.1 hPa | 0 mm | - | 7 W/m² | - |
| 1777855998 | 21.11° C | 28% | 1006 hPa | 0 mm | - | 9 W/m² | - |
| 1777855696 | 21.67° C | 27% | 1006 hPa | 0 mm | - | 12 W/m² | - |
| 1777855393 | 21.67° C | 27% | 1006.1 hPa | 0 mm | - | 16 W/m² | - |
| 1777855112 | 22.22° C | 26% | 1005.9 hPa | 0 mm | - | 19 W/m² | - |
| 1777854809 | 22.22° C | 26% | 1006 hPa | 0 mm | - | 25 W/m² | - |
| 1777854508 | 22.22° C | 26% | 1005.9 hPa | 0 mm | - | 44 W/m² | - |
| 1777854208 | 22.78° C | 25% | 1005.9 hPa | 0 mm | - | 56 W/m² | - |
| 1777853905 | 22.78° C | 24% | 1006 hPa | 0 mm | - | 70 W/m² | - |
| 1777853604 | 22.78° C | 25% | 1005.9 hPa | 0 mm | - | 84 W/m² | - |
| 1777853301 | 22.78° C | 25% | 1005.9 hPa | 0 mm | - | 97 W/m² | - |
| 1777853000 | 22.78° C | 24% | 1005.9 hPa | 0 mm | - | 105 W/m² | - |
| 1777852695 | 22.78° C | 25% | 1005.8 hPa | 0 mm | - | 60 W/m² | - |
| 1777852394 | 22.78° C | 25% | 1005.8 hPa | 0 mm | - | 46 W/m² | - |
| 1777852093 | 23.33° C | 24% | 1005.8 hPa | 0 mm | - | 46 W/m² | - |
| 1777851793 | 23.33° C | 24% | 1005.8 hPa | 0 mm | - | 67 W/m² | - |
| 1777851511 | 23.33° C | 24% | 1005.8 hPa | 0 mm | - | 49 W/m² | - |
| 1777851210 | 23.33° C | 25% | 1005.8 hPa | 0 mm | - | 51 W/m² | - |
| 1777850909 | 23.33° C | 24% | 1005.7 hPa | 0 mm | - | 51 W/m² | - |
| 1777850607 | 23.33° C | 23% | 1005.8 hPa | 0 mm | - | 53 W/m² | - |
| 1777850305 | 23.33° C | 24% | 1005.8 hPa | 0 mm | - | 54 W/m² | - |
| 1777850005 | 23.33° C | 25% | 1005.8 hPa | 0 mm | - | 58 W/m² | - |
* Rain latest hour (hover to see other rain measurements)
** Current wind speed in m/s (hover to see current wind gust speed)